Decorah
Sunday 2:15 PM
Temperature70° (70°/43°)
Dew Point48°
Relative Humidity46
%
Visibility10
mi
Pressure1025.1
mb
Wind DirectionVariable
Wind Speed5
mph
Precipitation Today0.00"

Last 30 Observations

Time PresWx Temp DP Feels RH% Vsby Pressure Ceiling Direction Speed 1h Precip
1:55 PM 68° 46° 46
%
10
mi
1025.4
mb
Variable 7
mph
0.00"
1:35 PM 68° 45° 43
%
10
mi
1025.7
mb
SSW
200°
5
mph
0.00"
1:15 PM 66° 41° 40
%
10
mi
1025.7
mb
Calm 0.00"
12:55 PM 66° 43° 43
%
10
mi
1026.1
mb
SW
230°
6
mph
0.00"
12:35 PM 66° 45° 46
%
10
mi
1026.1
mb
Variable 7
mph
0.00"
12:15 PM 66° 45° 46
%
10
mi
1026.4
mb
Variable 6
mph
0.00"
11:55 AM 64° 46° 52
%
10
mi
1026.4
mb
Variable 6
mph
0.00"
11:35 AM 63° 48° 59
%
10
mi
1026.8
mb
SSE
150°
8
mph
0.00"
11:15 AM 63° 50° 63
%
10
mi
1026.8
mb
Variable 5
mph
(G11)
0.00"
10:55 AM 61° 50° 68
%
10
mi
1027.1
mb
SSE
150°
6
mph
0.00"
10:35 AM 61° 52° 72
%
10
mi
1027.1
mb
Variable 5
mph
0.00"
10:15 AM 59° 52° 77
%
10
mi
1027.4
mb
Variable 5
mph
0.00"
9:55 AM 59° 52° 77
%
10
mi
1027.4
mb
Variable 6
mph
0.00"
9:35 AM 57° 52° 82
%
10
mi
1027.4
mb
Variable 5
mph
0.00"
9:15 AM 55° 50° 82
%
10
mi
1027.8
mb
ESE
120°
7
mph
0.00"
8:55 AM 55° 50° 82
%
10
mi
1027.8
mb
Variable 5
mph
0.00"
8:35 AM 54° 48° 82
%
10
mi
1027.4
mb
Variable 7
mph
0.00"
8:15 AM 52° 48° 87
%
10
mi
1027.1
mb
Variable 7
mph
0.00"
7:55 AM 52° 48° 87
%
10
mi
1027.1
mb
Variable 5
mph
0.00"
7:35 AM 52° 48° 87
%
10
mi
1026.8
mb
Variable 6
mph
0.00"
7:15 AM 50° 46° 87
%
10
mi
1026.8
mb
Variable 6
mph
0.00"
6:55 AM 48° 45° 46°87
%
10
mi
1026.4
mb
Variable 5
mph
0.00"
6:35 AM 48° 45° 47°87
%
1026.4
mb
ESE
110°
3
mph
0.00"
6:15 AM 46° 43° 87
%
9
mi
1026.4
mb
Calm 0.00"
5:55 AM 43° 43° 100
%
10
mi
1026.1
mb
Calm 0.00"
5:35 AM 43° 43° 100
%
10
mi
1026.1
mb
Calm 0.00"
5:15 AM 43° 43° 100
%
9
mi
1025.7
mb
Calm 0.00"
4:55 AM 45° 43° 93
%
10
mi
1025.4
mb
Calm 0.00"
4:35 AM 45° 45° 100
%
10
mi
1025.4
mb
Calm 0.00"
4:15 AM 45° 45° 100
%
10
mi
1025.4
mb
Calm 0.00"